Regional Weather Roundup
Issued by NWS

Home | Current Version | Previous Version | Graphics & Text | Print | Product List | Glossary On
Versions: 1 2 3 4 5 6 7 8 9 10 11 12 13 14 15 16 17 18 19 20 21 22 23 24 25 26 27 28 29 30 31 32 33 34 35 36 37 38 39 40 41 42 43 44 45 46 47 48 49 50
000
ASUS43 KDMX 231606
RWRIA

WEATHER ROUNDUP FOR IOWA
NATIONAL WEATHER SERVICE DES MOINES IA
1000 AM CST THU NOV 23 2017

NOTE: "FAIR" INDICATES FEW OR NO CLOUDS BELOW 12,000 FEET WITH NO
SIGNIFICANT WEATHER AND/OR OBSTRUCTIONS TO VISIBILITY.

* - THESE STATIONS ARE NOT NWS STATIONS...THUS NOT UNDER NWS
QUALITY CONTROL.  THEY ALSO DO NOT REPORT WEATHER SUCH
AS PRECIPITATION OR FOG.

IAZ001>003-012>014-020>022-031>034-043>046-231700-
   NORTHWEST IOWA

CITY           SKY/WX    TMP DP  RH WIND       PRES   REMARKS
CARROLL *      SUNNY     41  28  60 N9        29.99F
CHEROKEE *     SUNNY     38  29  68 CALM      29.99F
DENISON *      SUNNY     43  30  61 NW7       30.02S
LE MARS *      SUNNY     41  30  65 VRB3      30.00S
ORANGE CITY *  SUNNY     39  30  70 CALM      29.98S
SHELDON *      SUNNY     37  27  65 NW3       29.96F
SIOUX CITY     SUNNY     42  32  67 NW6       30.01F
SPENCER        SUNNY     37  25  61 NW6       29.97F WCI  32
STORM LAKE *   SUNNY     39  28  65 W7        29.98S WCI  34
$$

IAZ055>058-069>071-079>083-090>094-231700-
   SOUTHWEST IOWA

CITY           SKY/WX    TMP DP  RH WIND       PRES   REMARKS
ATLANTIC *     SUNNY     45  32  61 N7        30.02S
AUDUBON *      SUNNY     43  32  65 N3        30.01S
CLARINDA *     SUNNY     46  32  57 N9          N/A
COUNCIL BLFS * SUNNY     46  36  66 NW8       30.01S
CRESTON *      SUNNY     43  28  56 NW10      30.02S
HARLAN  *      SUNNY     45  34  65 N7        30.04F
LAMONI         SUNNY     43  28  55 NW10      30.00R
RED OAK *      SUNNY     48  34  57 N9        30.02F
SHENANDOAH *   SUNNY     46  34  61 NW6       30.04S
$$

IAZ047>049-059>061-072>074-084-231700-
   CENTRAL IOWA

CITY           SKY/WX    TMP DP  RH WIND       PRES   REMARKS
AMES           SUNNY     40  27  59 N8        29.98S WCI  34
ANKENY *       SUNNY     41  27  56 NW8       30.00R
BOONE *        SUNNY     41  27  56 N12       29.97S
CHARITON *     SUNNY     41  27  56 NW9       29.98S
DES MOINES     PTSUNNY   42  26  53 NW8       30.00R
GRINNELL*      SUNNY     38  25  58 NW8       29.98S WCI  33
KNOXVILLE *    SUNNY     41  25  52 NW9       29.97S
MARSHALLTOWN   SUNNY     37  24  59 NW8       29.96S WCI  31
NEWTON *       SUNNY     39  25  56 N9        29.98S WCI  33
PELLA *        SUNNY     40  25  54 NW8       29.99S
PERRY *          N/A     40  26  56 NW9       30.00S WCI  34
$$

IAZ004>006-015-016-023>025-035-036-231700-
   NORTH CENTRAL IOWA

CITY           SKY/WX    TMP DP  RH WIND       PRES   REMARKS
ALGONA *       SUNNY     36  27  69 NW8       29.97S WCI  29
CLARION *      SUNNY     36  25  64 N8        29.96F WCI  29
ESTHERVILLE    SUNNY     35  25  66 W6        29.97S WCI  30
FORT DODGE *   SUNNY     38  26  62 NW6       29.98F WCI  33
MASON CITY     SUNNY     36  23  59 N7        29.97S WCI  30
FOREST CITY *    N/A     34  23  64 NW5       29.96S WCI  30
WEBSTER CITY * SUNNY     37  25  60 N10       29.96S WCI  30
IOWA FALLS *     N/A     37  26  63 NW7       29.97F WCI  32
$$

IAZ007>011-017>019-026>030-037>042-050>054-066-231700-
   NORTHEAST IOWA

CITY           SKY/WX    TMP DP  RH WIND       PRES   REMARKS
CEDAR RAPIDS   SUNNY     39  23  52 NW9       29.96S WCI  33
CHARLES CITY * SUNNY     34  21  60 N8        29.95F WCI  27
CLINTON *      SUNNY     39  22  50 W9        29.97F WCI  33
DECORAH *      SUNNY     32  21  64 NW7       29.93S WCI  26
DUBUQUE        SUNNY     36  21  54 W7        29.95F WCI  30
MONTICELLO *   SUNNY     37  21  52 W8        29.96S WCI  31
OELWEIN *      SUNNY     36  23  60 NW5       29.95S WCI  32
WATERLOO       SUNNY     36  21  54 N6        29.96F WCI  31
$$

IAZ064-065-067-068-078-231700-
   EAST CENTRAL IOWA

CITY           SKY/WX    TMP DP  RH WIND       PRES   REMARKS
DAVENPORT      SUNNY     38  23  55 SW10      30.00S WCI  31
IOWA CITY      SUNNY     40  23  50 W6        29.99F
MT. PLEASANT * SUNNY     39  23  52 SW8       29.99S WCI  34
MUSCATINE *    SUNNY     39  23  52 W6G13     30.00S WCI  35
QUAD CITIES    SUNNY     40  22  48 W9        29.98F WCI  34
$$

IAZ062-063-075>077-085>089-095>099-231700-
   SOUTHEAST IOWA

CITY           SKY/WX    TMP DP  RH WIND       PRES   REMARKS
BURLINGTON     SUNNY     40  25  55 SW10      29.99F WCI  33
FAIRFIELD *    SUNNY     41  23  48 W8        29.98R
FORT MADISON * SUNNY     39  25  56 W5        30.00R
KEOKUK *       SUNNY     41  25  52 W8        30.00R
OSKALOOSA *      N/A     40  25  56 NW9       29.99R WCI  33
OTTUMWA        CLOUDY    41  25  53 W9        29.99R
WASHINGTON *   SUNNY     39  25  56 W10       29.99S WCI  32
$$

ABBREVIATIONS USED IN REMARKS
   TC - TEMPERATURES IN CELSIUS
  WCI - WIND CHILL INDEX
   HX - HEAT INDEX
  VSB - VISIBILITY
$$




USA.gov is the U.S. government's official web portal to all federal, state and local government web resources and services.